Location: Casilda
(33.0440°S, 61.1680°W)
Time: 16:06:05
(UTC-03:00)

ISS - Pass Details

Date: 11 December 2017
Orbit: 402 x 407 km, 51.6° (Epoch: 11 December)

Event Time Altitude Azimuth Distance (km) Brightness Sun altitude
Exits shadow 02:28:39 14° 170° (S) 1,264 -0.6 -29.9°
Drops below altitude 10° 02:29:22 10° 161° (SSE) 1,482 -0.1 -29.9°
Sets 02:31:46 0° 145° (SE) 2,349 1.2 -29.6°
